Regional Weather Roundup
Issued by NWS

Home | Current Version | Previous Version | Graphics & Text | Print | Product List | Glossary On
Versions: 1 2 3 4 5 6 7 8 9 10 11 12 13 14 15 16 17 18 19 20 21 22 23 24 25 26 27 28 29 30 31 32 33 34 35 36 37 38 39 40 41 42 43 44 45 46 47 48 49 50
000
ASUS43 KLSX 240307
RWRMO

WEATHER SUMMARY FOR MISSOURI
NATIONAL WEATHER SERVICE SPRINGFIELD MO
1000 PM CDT WED APR 23 2014

NOTE: "FAIR" INDICATES FEW OR NO CLOUDS BELOW 12,000 FEET WITH NO
       SIGNIFICANT WEATHER AND/OR OBSTRUCTIONS TO VISIBILITY.
       CURRENT SKY AND/OR WEATHER CONDITIONS ARE NOT AVAILABLE FOR
       CHILLICOTHE AND FARMINGTON.

MOZ001>031-035>038-043-044-053-054-240400-
...NORTHERN AND WESTERN MISSOURI...

CITY           SKY/WX    TMP DP  RH WIND       PRES   REMARKS
KANSAS CTY INT PTCLDY    69  41  36 SE20      29.70R
KANSAS C DTWN  PTCLDY    73  40  30 SE14G24   29.70R
LEE`S SUMMIT   MOCLDY    69  40  34 SE15G25   29.70F
ST JOSEPH      PTCLDY    65  40  39 SE13      29.69R
CHILLICOTHE      N/A     58  40  51 SE10      29.78S
KIRKSVILLE     CLEAR     54  35  48 SE15      29.84F

$$
MOZ066>068-077>081-088>096-101>105-240400-
...SOUTHWEST MISSOURI...

CITY           SKY/WX    TMP DP  RH WIND       PRES   REMARKS
SPRINGFIELD    CLEAR     67  41  38 SE16      29.83R
JOPLIN         MOCLDY    71  45  39 SE10      29.79R

$$
MOZ032>034-039>042-045>050-055>058-069>072-240400-
...CENTRAL MISSOURI...

CITY           SKY/WX    TMP DP  RH WIND       PRES   REMARKS
COLUMBIA       CLEAR     58  38  47 SE15G25   29.85F
JEFFERSON CITY CLEAR     61  38  42 E14       29.86F
ROLLA          CLEAR     62  34  35 SE14      29.87F
SEDALIA        CLEAR     61  40  45 SE16      29.80F
WHITEMAN AFB   CLEAR     62  34  35 SE15G21   29.76F
OSAGE BEACH    CLEAR     66  36  32 SE9       29.86F

$$
MOZ051-052-059>065-240400-
...EAST CENTRAL MISSOURI...

CITY           SKY/WX    TMP DP  RH WIND       PRES   REMARKS
ST LOUIS INTL  PTCLDY    59  34  39 SE13      29.96F
SPIRIT OF STL  PTCLDY    59  34  39 SE9       29.95R
ST CHARLES     PTCLDY    56  36  47 E12       29.95S

$$
MOZ072>076-082>087-097>100-106>115-240400-
...SOUTH CENTRAL AND SOUTHEAST MISSOURI...

CITY           SKY/WX    TMP DP  RH WIND       PRES   REMARKS
CAPE GIRARDEAU CLEAR     56  40  55 E5        29.99R
FARMINGTON     CLEAR     55  36  47 SE7       29.99S
POPLAR BLUFF   CLEAR     59  41  51 E6        29.96R
WEST PLAINS    PTCLDY    62  36  37 SE10      29.94R

$$



USA.gov is the U.S. government's official web portal to all federal, state and local government web resources and services.